When you browse on this site, cookies collect data to enhance your experience and personalize the content and advertising you see.
Visit our Privacy Policy to learn more. By continuing to use the site, you agree to this use of cookies and data.
  • In Latvia
  • List of Countries
  • For 7 days
  • Water Temperature
  • Satellite Maps
  • Weather Map
  • Weather Widgets
  • user-avatar
    Login

    Hourly Weather Klagenfurt

    Today, 23 May, Thursday

    Time Temperature Precipitation Wind Pressure Humidity
    00:00 +9°C° 0 mm 1 mps 689 mmHg 88%
    01:00 +8°C° 0 mm 1 mps 689 mmHg 88%
    02:00 +7°C° 0 mm 1 mps 689 mmHg 88%
    03:00 +7°C° 0 mm 1 mps 689 mmHg 87%
    04:00 +6°C° 0 mm 1 mps 689 mmHg 87%
    05:00 +8°C° 0 mm 1 mps 689 mmHg 83%
    06:00 +10°C° 0 mm 1 mps 690 mmHg 78%
    07:00 +12°C° 0 mm 1 mps 690 mmHg 73%
    08:00 +14°C° 0 mm 1 mps 690 mmHg 63%
    09:00 +18°C° 0 mm 1 mps 691 mmHg 54%
    10:00 +20°C° 0 mm 1 mps 691 mmHg 45%
    11:00 +20°C° 0 mm 1 mps 691 mmHg 45%
    12:00 +21°C° 0 mm 1 mps 691 mmHg 44%
    13:00 +22°C° 0 mm 1 mps 691 mmHg 44%
    14:00 +21°C° 0.1 mm 1 mps 691 mmHg 45%
    15:00 +21°C° 0.1 mm 1 mps 690 mmHg 45%
    16:00 +21°C° 0.1 mm 1 mps 690 mmHg 46%
    17:00 +19°C° 0.1 mm 1 mps 690 mmHg 56%
    18:00 +16°C° 0.1 mm 1 mps 689 mmHg 66%
    19:00 +14°C° 0.1 mm 1 mps 689 mmHg 76%
    20:00 +12°C° 0 mm 1 mps 689 mmHg 80%
    21:00 +10°C° 0 mm 0 mps 689 mmHg 84%
    22:00 +8°C° 0 mm 0 mps 690 mmHg 88%
    23:00 +8°C° 0 mm 0 mps 689 mmHg 90%

    Tomorrow, 24 May, Friday

    Time Temperature Precipitation Wind Pressure Humidity
    00:00 +8°C° 0 mm 0 mps 689 mmHg 91%
    01:00 +7°C° 0 mm 0 mps 689 mmHg 93%
    02:00 +7°C° 0 mm 0 mps 689 mmHg 93%
    03:00 +7°C° 0 mm 0 mps 689 mmHg 94%
    04:00 +7°C° 0 mm 1 mps 689 mmHg 94%
    05:00 +8°C° 0 mm 0 mps 689 mmHg 88%
    06:00 +10°C° 0 mm 0 mps 689 mmHg 82%
    07:00 +12°C° 0 mm 0 mps 689 mmHg 76%
    08:00 +14°C° 0 mm 0 mps 690 mmHg 66%
    09:00 +17°C° 0 mm 0 mps 690 mmHg 57%
    10:00 +20°C° 0 mm 0 mps 690 mmHg 47%
    11:00 +20°C° 0 mm 0 mps 690 mmHg 45%
    12:00 +23°C° 0 mm 1 mps 690 mmHg 43%
    13:00 +24°C° 0 mm 1 mps 690 mmHg 41%
    14:00 +23°C° 0.2 mm 1 mps 689 mmHg 44%
    15:00 +22°C° 0.2 mm 1 mps 689 mmHg 47%
    16:00 +21°C° 0.2 mm 1 mps 688 mmHg 51%
    17:00 +19°C° 0.3 mm 1 mps 688 mmHg 61%
    18:00 +18°C° 0.3 mm 1 mps 688 mmHg 71%
    19:00 +15°C° 0.3 mm 1 mps 687 mmHg 82%
    20:00 +12°C° 0.1 mm 0 mps 687 mmHg 85%
    21:00 +11°C° 0.1 mm 0 mps 688 mmHg 89%
    22:00 +10°C° 0.1 mm 0 mps 688 mmHg 93%
    23:00 +9°C° 0 mm 0 mps 688 mmHg 93%

    Day after tomorrow, 25 May, Saturday

    Time Temperature Precipitation Wind Pressure Humidity
    00:00 +9°C° 0 mm 0 mps 688 mmHg 93%
    01:00 +9°C° 0 mm 0 mps 687 mmHg 94%
    02:00 +8°C° 0 mm 0 mps 687 mmHg 94%
    03:00 +9°C° 0 mm 1 mps 687 mmHg 94%
    04:00 +9°C° 0 mm 1 mps 687 mmHg 94%
    05:00 +10°C° 0 mm 0 mps 688 mmHg 88%
    06:00 +12°C° 0 mm 0 mps 688 mmHg 83%
    07:00 +14°C° 0 mm 0 mps 689 mmHg 77%
    08:00 +16°C° 0 mm 0 mps 689 mmHg 68%
    09:00 +18°C° 0 mm 0 mps 689 mmHg 59%
    10:00 +22°C° 0 mm 1 mps 690 mmHg 50%
    11:00 +23°C° 0.3 mm 1 mps 690 mmHg 51%
    12:00 +23°C° 0.3 mm 1 mps 690 mmHg 53%
    13:00 +23°C° 0.3 mm 2 mps 689 mmHg 54%
    14:00 +21°C° 0.9 mm 2 mps 689 mmHg 59%
    15:00 +20°C° 0.9 mm 2 mps 689 mmHg 65%
    16:00 +20°C° 0.9 mm 2 mps 688 mmHg 71%
    17:00 +19°C° 0.8 mm 1 mps 688 mmHg 76%
    18:00 +18°C° 0.8 mm 1 mps 688 mmHg 81%
    19:00 +15°C° 0.8 mm 1 mps 688 mmHg 87%
    20:00 +14°C° 0.1 mm 1 mps 688 mmHg 89%
    21:00 +13°C° 0.1 mm 1 mps 688 mmHg 91%
    22:00 +11°C° 0.1 mm 1 mps 688 mmHg 94%
    23:00 +11°C° 0 mm 1 mps 688 mmHg 94%

    26 May, Sunday

    Time Temperature Precipitation Wind Pressure Humidity
    00:00 +11°C° 0 mm 1 mps 688 mmHg 93%
    01:00 +10°C° 0 mm 1 mps 688 mmHg 93%
    02:00 +10°C° 0 mm 1 mps 687 mmHg 93%
    03:00 +10°C° 0 mm 1 mps 687 mmHg 93%
    04:00 +9°C° 0 mm 1 mps 687 mmHg 93%
    05:00 +11°C° 0 mm 1 mps 688 mmHg 89%
    06:00 +12°C° 0 mm 0 mps 688 mmHg 86%
    07:00 +13°C° 0 mm 0 mps 688 mmHg 82%
    08:00 +16°C° 0 mm 0 mps 689 mmHg 71%
    09:00 +19°C° 0 mm 0 mps 690 mmHg 59%
    10:00 +23°C° 0 mm 1 mps 690 mmHg 47%
    11:00 +23°C° 0.3 mm 1 mps 690 mmHg 50%
    12:00 +23°C° 0.3 mm 1 mps 689 mmHg 54%
    13:00 +23°C° 0.3 mm 1 mps 689 mmHg 58%
    14:00 +22°C° 0.9 mm 1 mps 689 mmHg 62%
    15:00 +21°C° 0.9 mm 1 mps 688 mmHg 65%
    16:00 +21°C° 0.9 mm 1 mps 688 mmHg 69%
    17:00 +19°C° 0.4 mm 1 mps 688 mmHg 75%
    18:00 +18°C° 0.4 mm 1 mps 687 mmHg 80%
    19:00 +15°C° 0.4 mm 0 mps 687 mmHg 85%
    20:00 +14°C° 0.1 mm 0 mps 687 mmHg 88%
    21:00 +13°C° 0.1 mm 0 mps 687 mmHg 90%
    22:00 +11°C° 0.1 mm 0 mps 687 mmHg 92%
    23:00 +12°C° 0 mm 1 mps 687 mmHg 92%

    27 May, Monday

    Time Temperature Precipitation Wind Pressure Humidity
    00:00 +12°C° 0 mm 1 mps 686 mmHg 93%
    01:00 +12°C° 0 mm 1 mps 686 mmHg 93%
    02:00 +12°C° 0.1 mm 1 mps 686 mmHg 93%
    03:00 +12°C° 0.1 mm 1 mps 685 mmHg 93%
    04:00 +12°C° 0.1 mm 1 mps 685 mmHg 93%
    05:00 +12°C° 1 mm 1 mps 685 mmHg 94%
    06:00 +12°C° 1 mm 1 mps 685 mmHg 94%
    07:00 +13°C° 1 mm 1 mps 685 mmHg 94%
    08:00 +12°C° 1.5 mm 0 mps 685 mmHg 93%
    09:00 +13°C° 1.5 mm 0 mps 685 mmHg 93%
    10:00 +13°C° 1.5 mm 0 mps 685 mmHg 92%
    11:00 +14°C° 0.5 mm 0 mps 685 mmHg 88%
    12:00 +16°C° 0.5 mm 0 mps 685 mmHg 83%
    13:00 +17°C° 0.5 mm 0 mps 685 mmHg 79%
    14:00 +17°C° 0.9 mm 0 mps 684 mmHg 81%
    15:00 +18°C° 0.9 mm 1 mps 684 mmHg 82%
    16:00 +18°C° 0.9 mm 1 mps 683 mmHg 84%
    17:00 +16°C° 1.5 mm 1 mps 683 mmHg 88%
    18:00 +14°C° 1.5 mm 1 mps 682 mmHg 92%
    19:00 +13°C° 1.5 mm 1 mps 682 mmHg 96%
    20:00 +13°C° 1.3 mm 1 mps 682 mmHg 96%
    21:00 +12°C° 1.3 mm 0 mps 682 mmHg 97%
    22:00 +12°C° 1.3 mm 0 mps 682 mmHg 97%
    23:00 +11°C° 0.7 mm 0 mps 682 mmHg 98%

    28 May, Tuesday

    Time Temperature Precipitation Wind Pressure Humidity
    00:00 +11°C° 0.7 mm 0 mps 681 mmHg 98%
    01:00 +11°C° 0.7 mm 0 mps 681 mmHg 98%
    02:00 +11°C° 0.2 mm 0 mps 681 mmHg 98%
    03:00 +11°C° 0.2 mm 0 mps 681 mmHg 98%
    04:00 +11°C° 0.2 mm 0 mps 681 mmHg 98%
    05:00 +11°C° 0.1 mm 0 mps 681 mmHg 96%
    06:00 +12°C° 0.1 mm 0 mps 681 mmHg 95%
    07:00 +13°C° 0.1 mm 1 mps 681 mmHg 94%
    08:00 +14°C° 0.2 mm 1 mps 682 mmHg 90%
    09:00 +15°C° 0.2 mm 1 mps 682 mmHg 86%
    10:00 +16°C° 0.2 mm 1 mps 682 mmHg 82%
    11:00 +17°C° 0.6 mm 2 mps 683 mmHg 80%
    12:00 +18°C° 0.6 mm 2 mps 683 mmHg 78%
    13:00 +19°C° 0.6 mm 2 mps 683 mmHg 75%
    14:00 +18°C° 0.3 mm 2 mps 683 mmHg 77%
    15:00 +18°C° 0.3 mm 2 mps 683 mmHg 78%
    16:00 +17°C° 0.3 mm 3 mps 683 mmHg 79%
    17:00 +16°C° 0.1 mm 2 mps 683 mmHg 82%
    18:00 +15°C° 0.1 mm 2 mps 683 mmHg 86%
    19:00 +15°C° 0.1 mm 2 mps 684 mmHg 89%
    20:00 +14°C° 0.1 mm 2 mps 684 mmHg 92%
    21:00 +13°C° 0.1 mm 1 mps 684 mmHg 94%
    22:00 +13°C° 0.1 mm 1 mps 685 mmHg 96%
    23:00 +13°C° 0.4 mm 1 mps 685 mmHg 96%
    Show more